• In Deutschland
  • Länderverzeichnis
  • Für 7 Tage
  • Wassertemperatur
  • Satellitenkarten
  • Wetterkarte
  • Widgets
  • user-avatar
    Anmelden

    Stündliche Wetter Pernik

    Heute, 25 September, Montag

    Zeit Temperatur Niederschläge Wind Luftdruck Luftfeuchtigkeit
    00:00 +13°C° 0,1 mm 1 m/S 693 mmHg 67%
    01:00 +12°C° 0,1 mm 0 m/S 693 mmHg 70%
    02:00 +12°C° 0 mm 0 m/S 693 mmHg 77%
    03:00 +13°C° 0,4 mm 1 m/S 693 mmHg 80%
    04:00 +12°C° 0,4 mm 1 m/S 693 mmHg 82%
    05:00 +12°C° 0,4 mm 1 m/S 693 mmHg 84%
    06:00 +13°C° 0,2 mm 1 m/S 693 mmHg 82%
    07:00 +13°C° 0,2 mm 1 m/S 693 mmHg 81%
    08:00 +14°C° 0 mm 2 m/S 693 mmHg 75%
    09:00 +15°C° 0,1 mm 2 m/S 694 mmHg 69%
    10:00 +16°C° 0,1 mm 2 m/S 694 mmHg 63%
    11:00 +18°C° 0,1 mm 2 m/S 694 mmHg 56%
    12:00 +18°C° 0,1 mm 2 m/S 694 mmHg 53%
    13:00 +19°C° 0,1 mm 3 m/S 694 mmHg 51%
    14:00 +19°C° 0 mm 3 m/S 694 mmHg 48%
    15:00 +18°C° 0,2 mm 3 m/S 694 mmHg 52%
    16:00 +18°C° 0,2 mm 2 m/S 694 mmHg 56%
    17:00 +17°C° 0,2 mm 2 m/S 694 mmHg 60%
    18:00 +16°C° 0,1 mm 2 m/S 694 mmHg 66%
    19:00 +14°C° 0,1 mm 2 m/S 694 mmHg 71%
    20:00 +13°C° 0,1 mm 1 m/S 693 mmHg 77%
    21:00 +13°C° 0,1 mm 1 m/S 693 mmHg 79%
    22:00 +12°C° 0,1 mm 1 m/S 693 mmHg 81%
    23:00 +12°C° 0,1 mm 1 m/S 693 mmHg 84%

    Morgen, 26 September, Dienstag

    Zeit Temperatur Niederschläge Wind Luftdruck Luftfeuchtigkeit
    00:00 +12°C° 0,1 mm 1 m/S 693 mmHg 85%
    01:00 +12°C° 0,1 mm 1 m/S 693 mmHg 86%
    02:00 +11°C° 0,1 mm 1 m/S 693 mmHg 88%
    03:00 +11°C° 0,4 mm 1 m/S 693 mmHg 89%
    04:00 +11°C° 0,4 mm 1 m/S 693 mmHg 90%
    05:00 +11°C° 0,4 mm 1 m/S 692 mmHg 92%
    06:00 +11°C° 0,6 mm 1 m/S 693 mmHg 91%
    07:00 +12°C° 0,6 mm 2 m/S 693 mmHg 89%
    08:00 +12°C° 0,6 mm 2 m/S 693 mmHg 88%
    09:00 +13°C° 0,6 mm 2 m/S 693 mmHg 85%
    10:00 +13°C° 0,6 mm 2 m/S 693 mmHg 82%
    11:00 +14°C° 0,6 mm 2 m/S 694 mmHg 80%
    12:00 +14°C° 0,7 mm 2 m/S 694 mmHg 80%
    13:00 +14°C° 0,7 mm 2 m/S 693 mmHg 81%
    14:00 +14°C° 0,7 mm 2 m/S 693 mmHg 81%
    15:00 +14°C° 1,2 mm 2 m/S 693 mmHg 84%
    16:00 +13°C° 1,2 mm 2 m/S 693 mmHg 86%
    17:00 +13°C° 1,2 mm 2 m/S 693 mmHg 88%
    18:00 +13°C° 1,7 mm 1 m/S 693 mmHg 90%
    19:00 +13°C° 1,7 mm 1 m/S 693 mmHg 92%
    20:00 +12°C° 1,7 mm 1 m/S 694 mmHg 93%
    21:00 +12°C° 1,9 mm 1 m/S 694 mmHg 94%
    22:00 +12°C° 1,9 mm 1 m/S 694 mmHg 94%
    23:00 +12°C° 1,9 mm 1 m/S 694 mmHg 94%

    übermorgen, 27 September, Mittwoch

    Zeit Temperatur Niederschläge Wind Luftdruck Luftfeuchtigkeit
    00:00 +12°C° 1,6 mm 1 m/S 694 mmHg 94%
    01:00 +12°C° 1,6 mm 1 m/S 694 mmHg 94%
    02:00 +12°C° 1,6 mm 1 m/S 694 mmHg 95%
    03:00 +12°C° 0,8 mm 1 m/S 694 mmHg 95%
    04:00 +11°C° 0,8 mm 1 m/S 694 mmHg 95%
    05:00 +10°C° 0,8 mm 2 m/S 694 mmHg 95%
    06:00 +10°C° 0,6 mm 2 m/S 695 mmHg 94%
    07:00 +10°C° 0,6 mm 2 m/S 695 mmHg 93%
    08:00 +12°C° 0,6 mm 2 m/S 695 mmHg 92%
    09:00 +12°C° 0,2 mm 2 m/S 696 mmHg 89%
    10:00 +13°C° 0,2 mm 2 m/S 696 mmHg 86%
    11:00 +13°C° 0,2 mm 2 m/S 696 mmHg 83%
    12:00 +13°C° 0,2 mm 2 m/S 696 mmHg 81%
    13:00 +14°C° 0,2 mm 2 m/S 696 mmHg 79%
    14:00 +14°C° 0,2 mm 2 m/S 696 mmHg 77%
    15:00 +14°C° 0,1 mm 2 m/S 696 mmHg 78%
    16:00 +14°C° 0,1 mm 2 m/S 696 mmHg 79%
    17:00 +13°C° 0,1 mm 2 m/S 696 mmHg 80%
    18:00 +13°C° 0 mm 2 m/S 696 mmHg 83%
    19:00 +12°C° 0 mm 2 m/S 697 mmHg 87%
    20:00 +10°C° 0 mm 2 m/S 697 mmHg 91%
    21:00 +11°C° 0 mm 1 m/S 697 mmHg 92%
    22:00 +10°C° 0 mm 1 m/S 697 mmHg 93%
    23:00 +10°C° 0 mm 1 m/S 697 mmHg 94%

    28 September, Donnerstag

    Zeit Temperatur Niederschläge Wind Luftdruck Luftfeuchtigkeit
    00:00 +10°C° 0 mm 1 m/S 697 mmHg 94%
    01:00 +10°C° 0 mm 1 m/S 697 mmHg 94%
    02:00 +10°C° 0 mm 1 m/S 697 mmHg 94%
    03:00 +10°C° 0 mm 1 m/S 697 mmHg 94%
    04:00 +10°C° 0 mm 1 m/S 697 mmHg 95%
    05:00 +9°C° 0 mm 1 m/S 697 mmHg 95%
    06:00 +10°C° 0 mm 1 m/S 697 mmHg 92%
    07:00 +9°C° 0 mm 2 m/S 697 mmHg 89%
    08:00 +10°C° 0 mm 2 m/S 698 mmHg 86%
    09:00 +12°C° 0 mm 2 m/S 698 mmHg 78%
    10:00 +13°C° 0 mm 2 m/S 698 mmHg 70%
    11:00 +14°C° 0 mm 3 m/S 698 mmHg 62%
    12:00 +14°C° 0 mm 3 m/S 698 mmHg 60%
    13:00 +14°C° 0 mm 3 m/S 698 mmHg 59%
    14:00 +16°C° 0 mm 3 m/S 698 mmHg 57%
    15:00 +14°C° 0 mm 3 m/S 697 mmHg 59%
    16:00 +14°C° 0 mm 3 m/S 697 mmHg 60%
    17:00 +13°C° 0 mm 3 m/S 697 mmHg 62%
    18:00 +12°C° 0 mm 3 m/S 697 mmHg 68%
    19:00 +10°C° 0 mm 2 m/S 697 mmHg 75%
    20:00 +9°C° 0 mm 2 m/S 697 mmHg 81%
    21:00 +8°C° 0 mm 2 m/S 697 mmHg 83%
    22:00 +8°C° 0 mm 2 m/S 697 mmHg 84%
    23:00 +7°C° 0 mm 2 m/S 697 mmHg 86%

    29 September, Freitag

    Zeit Temperatur Niederschläge Wind Luftdruck Luftfeuchtigkeit
    00:00 +8°C° 0 mm 1 m/S 697 mmHg 87%
    01:00 +7°C° 0 mm 1 m/S 697 mmHg 88%
    02:00 +7°C° 0 mm 1 m/S 697 mmHg 88%
    03:00 +7°C° 0 mm 1 m/S 696 mmHg 89%
    04:00 +6°C° 0 mm 1 m/S 696 mmHg 90%
    05:00 +6°C° 0 mm 1 m/S 696 mmHg 91%
    06:00 +6°C° 0 mm 2 m/S 696 mmHg 87%
    07:00 +6°C° 0 mm 2 m/S 696 mmHg 84%
    08:00 +7°C° 0 mm 2 m/S 697 mmHg 81%
    09:00 +8°C° 0 mm 2 m/S 697 mmHg 72%
    10:00 +10°C° 0 mm 3 m/S 697 mmHg 63%
    11:00 +11°C° 0 mm 3 m/S 697 mmHg 55%
    12:00 +12°C° 0 mm 3 m/S 697 mmHg 52%
    13:00 +13°C° 0 mm 3 m/S 696 mmHg 50%
    14:00 +13°C° 0 mm 3 m/S 696 mmHg 48%
    15:00 +13°C° 0 mm 3 m/S 696 mmHg 51%
    16:00 +12°C° 0 mm 3 m/S 695 mmHg 53%
    17:00 +12°C° 0 mm 3 m/S 695 mmHg 56%
    18:00 +10°C° 0 mm 3 m/S 695 mmHg 63%
    19:00 +8°C° 0 mm 2 m/S 695 mmHg 70%
    20:00 +6°C° 0 mm 2 m/S 695 mmHg 78%
    21:00 +7°C° 0 mm 1 m/S 695 mmHg 80%
    22:00 +6°C° 0 mm 1 m/S 695 mmHg 81%
    23:00 +6°C° 0 mm 1 m/S 695 mmHg 83%

    30 September, Samstag

    Zeit Temperatur Niederschläge Wind Luftdruck Luftfeuchtigkeit
    00:00 +6°C° 0 mm 1 m/S 695 mmHg 84%
    01:00 +5°C° 0 mm 1 m/S 695 mmHg 85%
    02:00 +5°C° 0 mm 1 m/S 694 mmHg 85%
    03:00 +5°C° 0 mm 1 m/S 694 mmHg 86%
    04:00 +4°C° 0 mm 1 m/S 694 mmHg 86%
    05:00 +4°C° 0 mm 1 m/S 694 mmHg 87%
    06:00 +5°C° 0 mm 1 m/S 694 mmHg 80%
    07:00 +6°C° 0 mm 1 m/S 694 mmHg 74%
    08:00 +7°C° 0 mm 1 m/S 694 mmHg 68%
    09:00 +9°C° 0 mm 1 m/S 694 mmHg 58%
    10:00 +10°C° 0 mm 2 m/S 695 mmHg 48%
    11:00 +13°C° 0 mm 2 m/S 695 mmHg 38%
    12:00 +14°C° 0 mm 2 m/S 694 mmHg 36%
    13:00 +15°C° 0 mm 2 m/S 694 mmHg 33%
    14:00 +16°C° 0 mm 2 m/S 693 mmHg 31%
    15:00 +15°C° 0 mm 2 m/S 693 mmHg 33%
    16:00 +15°C° 0 mm 2 m/S 693 mmHg 35%
    17:00 +14°C° 0 mm 2 m/S 693 mmHg 36%
    18:00 +12°C° 0 mm 2 m/S 693 mmHg 42%
    19:00 +10°C° 0 mm 1 m/S 692 mmHg 48%
    20:00 +7°C° 0 mm 1 m/S 692 mmHg 54%
    21:00 +7°C° 0 mm 1 m/S 692 mmHg 55%
    22:00 +6°C° 0 mm 1 m/S 692 mmHg 57%
    23:00 +6°C° 0 mm 1 m/S 692 mmHg 58%
    Mehr zeigen